Location: Newark
(44.1667°N, 8.2500°E)
Time: 01:54:05
(UTC+00:00)

Envisat - Pass Details

Date: 17 November 2019
Orbit: 764 x 766 km, 98.1° (Epoch: 15 December)

Event Time Altitude Azimuth Distance (km) Brightness Sun altitude
Rises 05:33:36 0° 23° (NNE) 3,242 6.3 -9.3°
Reaches altitude 10° 05:36:11 10° 34° (NNE) 2,310 5.7 -8.9°
Maximum altitude 05:40:40 30° 95° (E) 1,336 5.2 -8.1°
Drops below altitude 10° 05:45:06 10° 157° (SSE) 2,294 6.1 -7.3°
Sets 05:47:39 0° 167° (SSE) 3,215 6.7 -6.9°
